Showing default

FLOCK 4G 11, 62629

Orbit data source: Space-Track

FLOCK 4G 11, 62629 is a payload satellite owned by Planet (US) in SSO that was launched on Tue, 14 Jan 2025 UTC via an FALCON 9 launch vehicle from the Air Force Western Test Range (AFWTR). Payload-class satellites include a variety of spacecraft equipped with specific instruments for various scientific and technological missions. These include communications satellites like Starlink; space stations such as the ISS; scientific satellites like the Hubble; Earth observation satellites from companies like Planet Labs, Umbra, and HawkEye 360; GPS; miniature CubeSats for education and research; and military/defense satellites.

Loading next visibility...
Identifier
62629, 2025-009W
Orbit
SSO
Country
Flag of USUS
Related business
Manufacturer
Planet
Mission
Operational Commercial Imaging
Bus & Motor
CUBESAT 3U, Unknown motor
Mass
5.7 kg wet, 5.7 kg dry
Launch date (UTC)
2025-01-14 (1 year ago)
Launch vehicle
FALCON 9
Launch site
Air Force Western Test Range (AFWTR)
Object type
Payload
Rocket body
Debris
Shape & HBR
Box + 2 Pan, 1.0 m
Radar Cross Section
0.072 m², Medium (>0.1 m² and < 1m²)

Expand to show TLE details & history
Last TLE update: 16 hours ago

TLE from 16 hours ago
0 FLOCK 4G 11
1 62629U 25009W   26034.44171874  .00012602  00000-0  48667-3 0  9997
2 62629  97.4029 116.9021 0004019  82.7648 277.4048 15.26393631 58494
Epoch: 2026-02-03T10:36Z
TLE epoch observation values (Epoch: 2026-02-03T10:36:04.499Z)
Latitude
0.00006°
Longitude
-175.73925°
Altitude
489.348 km
Speed
7.621 km/s
True Right ascension
07h 47m 36s
True Declination
0° 00' 00"
Sunlit
Object was in full shadow at epoch
Visualization orbit readout
Latitude
Unknown
Longitude
Unknown
Altitude
Unknown
Speed
Unknown
Apparent Right ascension
Unknown
Apparent Declination
Unknown
Sunlit
N/A
Visualization observer readout
Local Sidereal Time
04:12:18
Azimuth
Unknown
Elevation
Unknown
Doppler factor
Unknown
Orbital elements
Apogee altitude
486.319 km
Perigee altitude
480.803 km
Semi-major axis
6,861.698 km
Eccentricity
0.0004
Inclination
97.4029°
RAAN
116.9021°
Arg. of periapsis
82.7648°
True anomaly
277.35913°
Mean anomaly
277.4048°
Eccentric anomaly
277.38196°
Mean motion
3.81853 °/min
Orbital period
94.28 mins
BSTAR
0.00048667
Loading maneuver chart data...
Computing Atmospheric mass density...
Loading historical data...
Loading historical data...
Loading historical data...
Loading historical data...
Loading historical data...
Loading historical data...
Loading historical data...

Documentation

Showing up to 5 results
|